Montgomery, NY

7:26 PM EST on January 20, 2017 (GMT -0500)
Orange County

Weather History for KMGJ - October, 2013

Change the Weather History Date:

Friday, October 18, 2013

  Actual Average (KSWF) Record (KSWF)
Temperature  
Mean Temperature 54 °F -  
Max Temperature 66 °F 58 °F 84 °F (2016)
Min Temperature 43 °F 38 °F 20 °F (1978)
Degree Days  
Heating Degree Days 10    
Growing Degree Days 4 (Base 50)    
Moisture  
Dew Point 46 °F    
Average Humidity 67    
Maximum Humidity 94    
Minimum Humidity 38    
Precipitation  
Precipitation 0.10 in - - ()
Sea Level Pressure  
Sea Level Pressure 29.82 in    
Wind  
Wind Speed 8 mph (West)    
Max Wind Speed 15 mph    
Max Gust Speed 22 mph    
Visibility 10 miles    
Events Rain    
Averages and records for this station are not official NWS values.
T = Trace of Precipitation, MM = Missing Value Source: NWS Daily Summary

Daily Weather History Graph

Daily Weather History Graph

Search for Another Location

Airport or City:

Trip Planner

Search our weather history database for the weather conditions in past years. The results will help you decide how hot, cold, wet, or windy it might be!

Date:

Astronomy

Oct. 18, 2013 Rise Set
Actual Time 7:12 AM EDT 6:10 PM EDT
Civil Twilight 6:44 AM EDT 6:38 PM EDT
Nautical Twilight 6:12 AM EDT 7:11 PM EDT
Astronomical Twilight 5:40 AM EDT 7:43 PM EDT
Moon 5:59 PM EDT (10/18) 6:45 AM EDT (10/18)
Length of Visible Light 11h 54m
Length of Day
10h 58m
Full, 100% of the Moon is Illuminated
Oct 18
Full
Oct 18
Full
Oct 26
Last Quarter
Nov 3
New
Nov 10
First Quarter

Hourly Weather History & Observations

Time (EDT) Temp. Dew Point Humidity Pressure Visibility Wind Dir Wind Speed Gust Speed Precip Events Conditions
12:44 AM 64.4 °F 62.6 °F 94% 29.64 in 7.0 mi SW 4.6 mph - 0.10 in Rain Light Rain
12:54 AM 64.9 °F 62.1 °F 90% 29.64 in 9.0 mi SW 10.4 mph - 0.10 in Rain Light Rain
1:13 AM 64.4 °F 62.6 °F 94% 29.64 in 10.0 mi SW 10.4 mph - 0.00 in   Mostly Cloudy
1:54 AM 64.0 °F 55.9 °F 75% 29.66 in 10.0 mi West 12.7 mph 21.9 mph 0.00 in   Scattered Clouds
2:54 AM 60.1 °F 53.1 °F 78% 29.69 in 10.0 mi West 8.1 mph - N/A   Partly Cloudy
3:54 AM 57.0 °F 51.1 °F 81% 29.71 in 10.0 mi WSW 6.9 mph - N/A   Clear
4:54 AM 55.9 °F 48.9 °F 77% 29.73 in 10.0 mi WSW 6.9 mph - N/A   Scattered Clouds
5:54 AM 55.0 °F 48.9 °F 80% 29.75 in 10.0 mi SSW 6.9 mph - N/A   Overcast
6:54 AM 55.9 °F 46.0 °F 69% 29.78 in 10.0 mi West 6.9 mph - N/A   Scattered Clouds
7:54 AM 55.0 °F 44.1 °F 67% 29.82 in 10.0 mi WSW 3.5 mph - N/A   Clear
8:54 AM 57.0 °F 44.1 °F 62% 29.85 in 10.0 mi WNW 8.1 mph - N/A   Clear
9:54 AM 57.0 °F 43.0 °F 59% 29.86 in 10.0 mi NW 6.9 mph 18.4 mph N/A   Partly Cloudy
10:54 AM 61.0 °F 45.0 °F 56% 29.86 in 10.0 mi NW 12.7 mph - N/A   Clear
11:54 AM 64.0 °F 44.1 °F 48% 29.86 in 10.0 mi West 15.0 mph 21.9 mph N/A   Partly Cloudy
12:54 PM 64.0 °F 41.0 °F 43% 29.85 in 10.0 mi WNW 13.8 mph 20.7 mph N/A   Clear
1:54 PM 63.0 °F 39.9 °F 43% 29.85 in 10.0 mi WNW 9.2 mph 18.4 mph N/A   Clear
2:54 PM 64.9 °F 39.9 °F 40% 29.85 in 10.0 mi WSW 13.8 mph 21.9 mph N/A   Clear
3:54 PM 66.0 °F 39.9 °F 38% 29.86 in 10.0 mi WNW 9.2 mph 19.6 mph N/A   Partly Cloudy
4:54 PM 64.0 °F 39.9 °F 41% 29.86 in 10.0 mi WNW 10.4 mph - N/A   Clear
5:54 PM 61.0 °F 39.0 °F 44% 29.88 in 10.0 mi WSW 3.5 mph - N/A   Unknown
6:54 PM 54.0 °F 41.0 °F 62% 29.91 in 10.0 mi WSW 3.5 mph - N/A   Clear
7:54 PM 52.0 °F 41.0 °F 66% 29.93 in 10.0 mi West 5.8 mph - N/A   Clear
8:54 PM 46.9 °F 41.0 °F 80% 29.94 in 10.0 mi Calm Calm - N/A   Clear
9:54 PM 46.9 °F 41.0 °F 80% 29.96 in 10.0 mi Calm Calm - N/A   Clear
10:54 PM 43.0 °F 39.0 °F 86% 29.97 in 10.0 mi Calm Calm - N/A   Clear
11:54 PM 43.0 °F 39.9 °F 89% 29.98 in 10.0 mi Calm Calm - N/A   Clear